Flag for USA

Past Weather in Lubec, Maine, USA — Yesterday and Last 2 Weeks

Now
89 °F

Hot.


Feels Like: 87 °F
Forecast: 75 / 59 °F
Wind: 6 mph from Southwest

Location: St. Stephen
Current Time: Aug 13, 2020 at 5:13:22 pm
Latest Report: Aug 13, 2020 at 4:00 pm
Visibility: N/A
Pressure30.01 "Hg
Humidity: 34%
Dew Point: 56 °F
Location of LubecLocation

Past Weather in Lubec — Graph

°F

Lubec Temperature Yesterday

Maximum temperature yesterday: 85 °F (at 2:00 pm)
Minimum temperature yesterday: 63 °F (at 11:00 pm)
Average temperature yesterday: 73 °F

High & Low Weather Summary for the Past Weeks

 TemperatureHumidityPressure
High89 °F (Aug 3, 2:00 pm)100% (Aug 2, 4:00 am)30.16 "Hg (Aug 2, 4:00 am)
Low51 °F (Aug 7, 5:00 am)28% (Aug 9, 3:00 pm)29.72 "Hg (Jul 30, 5:00 pm)
Average72 °F75%29.95 "Hg
* Reported Jul 29 3:00 pm — Aug 13 3:00 pm, Lubec. Weather by CustomWeather, © 2020

Note: Actual official high and low records may vary slightly from our data, if they occured in-between our weather recording intervals... More about our weather records

Lubec Weather History for the Previous 24 Hours

Scroll right to see more
 ConditionsComfort  
Time TempWeatherWind HumidityBarometerVisibility
3:00 pm
Thu, Aug 13
87 °FPleasantly warm.5 mph36%30.02 "HgN/A
2:00 pm87 °FPleasantly warm.3 mph34%30.02 "HgN/A
1:00 pm87 °FPleasantly warm.2 mph36%30.03 "HgN/A
12:00 pm86 °FPleasantly warm.3 mph39%30.04 "HgN/A
11:00 am86 °FWarm.3 mph45%30.05 "HgN/A
10:00 am82 °FWarm.2 mph52%30.06 "HgN/A
8:00 am69 °FMild.2 mph80%30.06 "HgN/A
7:00 am61 °FCool.1 mph97%30.06 "HgN/A
6:00 am55 °FCool.No wind99%30.06 "HgN/A
5:00 am56 °FCool.1 mph99%30.05 "HgN/A
4:00 am57 °FCool.1 mph99%30.04 "HgN/A
3:00 am57 °FCool.No wind99%30.03 "HgN/A
2:00 am58 °FCool.1 mph99%30.02 "HgN/A
1:00 am60 °FCool.No wind99%30.01 "HgN/A
12:00 am61 °FCool.1 mph99%30.01 "HgN/A
11:00 pm
Wed, Aug 12
63 °FMild.1 mph99%30.00 "HgN/A
10:00 pm64 °FMild.1 mph98%29.99 "HgN/A
9:00 pm67 °FMild.1 mph98%29.98 "HgN/A
8:00 pm69 °FMild.1 mph95%29.96 "HgN/A
7:00 pm74 °FMild.2 mph88%29.95 "HgN/A
6:00 pm78 °FWarm.3 mph79%29.94 "HgN/A
5:00 pm77 °FWarm.5 mph86%29.92 "HgN/A
Weather by CustomWeather, © 2020

See weather overview